Powrót do katalogu

STARLINK-34044

AktywnyŁącznośćVLEO
NORAD 63846·PAYLOAD·🇺🇸 United States

Wystrzelony May 7, 2025 z Cape Canaveral Space Force Station

Loading…

Następne Przeloty (najbliższe 24 godziny)

TLE

ŚwieżeSource: CelesTrak SupGP

Epoka: Sep 14, 2026, 22:50 UTC

1 63846C 25093L   26257.95187500  .00040212  00000+0  14566-2 0  2572
2 63846  43.0019  88.8089 0001362 271.3297 325.1081 15.27554884    10

Śledź STARLINK-34044 w czasie rzeczywistym z AllMySat

Download on the App Store